Nagpur Sonegaon, India

11:27 PM IST on January 16, 2017 (GMT +0530)
Nagpur

Weather History for VANP - December, 2013

Change the Weather History Date:

Friday, December 20, 2013

  Actual Average Record
Temperature  
Mean Temperature 68 °F -  
Max Temperature 85 °F 84 °F - ()
Min Temperature 51 °F 55 °F - ()
Cooling Degree Days 3    
Growing Degree Days 18 (Base 50)    
Moisture  
Dew Point 49 °F    
Average Humidity 54    
Maximum Humidity 86    
Minimum Humidity 21    
Precipitation  
Precipitation 0.00 in 0.02 in - ()
Sea Level Pressure  
Sea Level Pressure 29.94 in    
Wind  
Wind Speed 1 mph ()    
Max Wind Speed 5 mph    
Max Gust Speed -    
Visibility 2.0 miles    
Events      
T = Trace of Precipitation, MM = Missing Value Source: Averaged Metar Reports

Daily Weather History Graph

Daily Weather History Graph

Search for Another Location

Airport or City:

Trip Planner

Search our weather history database for the weather conditions in past years. The results will help you decide how hot, cold, wet, or windy it might be!

Date:

Astronomy

Dec. 20, 2013 Rise Set
Actual Time 6:45 AM IST 5:36 PM IST
Civil Twilight 6:21 AM IST 6:01 PM IST
Nautical Twilight 5:53 AM IST 6:28 PM IST
Astronomical Twilight 5:26 AM IST 6:56 PM IST
Moon 8:13 PM IST (12/20) 8:39 AM IST (12/20)
Length of Visible Light 11h 39m
Length of Day
10h 51m
Waning Gibbous, 93% of the Moon is Illuminated
Dec 20
Waning Gibbous
Dec 25
Last Quarter
Jan 1
New
Jan 8
First Quarter
Jan 16
Full

Hourly Weather History & Observations

Time (IST) Temp. Dew Point Humidity Pressure Visibility Wind Dir Wind Speed Gust Speed Precip Events Conditions
12:10 AM 62.6 °F 46.4 °F 55% 29.92 in 3.1 mi West 3.5 mph - N/A   Haze
1:10 AM 59.0 °F 46.4 °F 63% 29.92 in 3.1 mi Calm Calm - N/A   Haze
2:10 AM 59.0 °F 44.6 °F 59% 29.92 in 3.1 mi Calm Calm - N/A   Haze
2:30 AM 56 °F 52 °F 82% 29.90 in 1 mi Calm Calm - -   Haze
3:10 AM 57.2 °F 44.6 °F 63% 29.89 in 3.1 mi Calm Calm - N/A   Haze
4:10 AM 55.4 °F 44.6 °F 67% 29.89 in 3.1 mi Calm Calm - N/A   Haze
5:10 AM 55.4 °F 44.6 °F 67% 29.89 in 3.1 mi Calm Calm - N/A   Haze
5:30 AM 55 °F 52 °F 86% 29.91 in 1 mi Calm Calm - -   Haze
5:40 AM 51.8 °F 44.6 °F 76% 29.89 in 3.1 mi Calm Calm - N/A   Haze
6:10 AM 51.8 °F 44.6 °F 76% 29.92 in 3.1 mi Calm Calm - N/A   Haze
7:10 AM 50.0 °F 42.8 °F 76% 29.95 in 1.6 mi Calm Calm - N/A   Haze
7:40 AM 53.6 °F 46.4 °F 77% - 1.6 mi Calm Calm - N/A   Haze
8:30 AM 63 °F 54 °F 65% 29.98 in 1 mi NE 2.3 mph - -   Haze
8:40 AM 60.8 °F 50.0 °F 68% 29.98 in 1.9 mi NNE 2.3 mph - N/A   Haze
9:10 AM 66.2 °F 50.0 °F 56% 30.01 in 1.9 mi Calm Calm - N/A   Haze
9:40 AM 69.8 °F 51.8 °F 53% 30.01 in 1.6 mi SE 2.3 mph - N/A   Haze
10:10 AM 71.6 °F 53.6 °F 53% 30.01 in 1.2 mi Calm Calm - N/A   Haze
10:40 AM 73.4 °F 53.6 °F 50% 30.01 in 1.2 mi Calm Calm - N/A   Haze
11:10 AM 75.2 °F 53.6 °F 47% 30.01 in 1.2 mi Calm Calm - N/A   Haze
11:30 AM 77 °F 55 °F 37% 29.96 in 1 mi Calm Calm - -   Haze
11:40 AM 77.0 °F 53.6 °F 44% 29.98 in 1.2 mi Calm Calm - N/A   Haze
12:10 PM 77.0 °F 51.8 °F 41% 29.98 in 1.2 mi NNW 3.5 mph - N/A   Haze
12:40 PM 78.8 °F 53.6 °F 42% 29.95 in 1.6 mi NNW 3.5 mph - N/A   Haze
1:10 PM 80.6 °F 51.8 °F 37% 29.95 in 1.9 mi NE 2.3 mph - N/A   Haze
2:10 PM 80.6 °F 48.2 °F 32% 29.92 in 1.9 mi East 2.3 mph - N/A   Haze
2:30 PM 83 °F 49 °F 21% 29.86 in 1 mi East 2.3 mph - -   Haze
3:10 PM 82.4 °F 50.0 °F 32% 29.89 in 2.2 mi ESE 2.3 mph - N/A   Haze
3:40 PM 82.4 °F 50.0 °F 32% 29.89 in 2.5 mi SSE 3.5 mph - N/A   Haze
4:10 PM 82.4 °F 50.0 °F 32% 29.89 in 2.5 mi South 2.3 mph - N/A   Haze
4:40 PM 78.8 °F 46.4 °F 32% 29.89 in 2.5 mi NNE 4.6 mph - N/A   Haze
5:10 PM 77.0 °F 46.4 °F 34% 29.89 in 2.5 mi East 3.5 mph - N/A   Haze
5:30 PM 76 °F 55 °F 38% 29.87 in 2 mi SE 3.5 mph - -   Haze
5:40 PM 75.2 °F 48.2 °F 38% 29.92 in 2.5 mi SSE 2.3 mph - N/A   Haze
6:10 PM 71.6 °F 48.2 °F 43% 29.92 in 2.5 mi SSE 2.3 mph - N/A   Haze
6:40 PM 69.8 °F 48.2 °F 46% 29.92 in 2.5 mi East 2.3 mph - N/A   Haze
7:10 PM 68.0 °F 48.2 °F 49% 29.95 in 2.5 mi East 2.3 mph - N/A   Haze
7:40 PM 66.2 °F 48.2 °F 52% 29.95 in - North - - N/A   Haze
8:10 PM 66.2 °F 48.2 °F 52% 29.95 in 2.2 mi North - - N/A   Haze
8:30 PM 65 °F 54 °F 60% 29.95 in 1 mi Calm Calm - -   Haze
8:40 PM 64.4 °F 50.0 °F 59% 29.95 in 2.2 mi Calm Calm - N/A   Haze
9:10 PM 64.4 °F 50.0 °F 59% 29.98 in 2.2 mi East 2.3 mph - N/A   Haze
9:40 PM 62.6 °F 50.0 °F 63% 29.98 in 2.2 mi Calm Calm - N/A   Haze
10:40 PM 62.6 °F 48.2 °F 59% 29.98 in - North - - N/A   Haze
11:10 PM 60.8 °F 50.0 °F 68% 29.95 in 2.2 mi North - - N/A   Haze
11:30 PM 60 °F 54 °F 75% 29.96 in 1 mi Calm Calm - -   Haze